Temperature
22 21 20 20 19 20 22 24 27 28 29 29 29 29 28 27 26 24 23 24 24 24 23 22 22 22 22 21 21 21 21 20 20 20 20 20 20 20 20 20 20 19 19 19 19 19 19 19 19
22 21 20 19 20 21 23 26 27 28 29 29 29 29 28 26 24 23 23 24 24 24 23 23 22 22 22 21 21 21 21 20 20 20 20 20 20 20 20 20 20 20 20 20 20 20 20 20 19
22 21 20 19 21 22 25 27 28 29 29 30 29 29 28 26 24 24 24 24 24 24 23 23 22 22 22 21 21 21 21 20 20 20 20 20 20 20 20 20 20 20 20 20 20 20 20 20 20
22 21 20 20 22 24 26 28 29 29 29 29 29 28 28 27 26 25 24 24 24 24 23 23 23 22 22 22 21 21 21 20 20 20 20 20 20 20 20 20 20 20 20 20 20 20 20 20 20
22 21 20 20 23 26 28 29 30 29 29 28 28 26 26 26 27 25 24 24 24 24 23 23 23 22 22 22 21 21 21 21 20 20 20 20 20 20 20 20 20 20 20 20 20 20 20 20 20
22 21 20 21 24 28 29 30 30 29 28 28 27 26 25 25 26 25 24 24 24 24 24 23 23 22 22 22 21 21 21 21 20 20 20 20 20 20 20 20 20 20 20 20 20 20 20 20 20
22 21 21 23 25 27 29 30 29 28 28 28 28 25 25 24 25 25 24 24 24 24 24 23 23 22 22 22 22 21 21 21 21 20 20 20 20 20 20 20 20 20 20 20 20 20 20 20 20
24 21 22 23 25 27 29 29 29 28 28 28 28 25 25 24 25 24 24 24 23 24 24 23 23 23 22 22 21 21 21 21 21 20 20 20 20 20 20 20 20 19 19 19 20 20 20 20 20
25 21 20 23 25 26 29 29 29 28 28 27 27 27 26 25 24 23 23 23 22 23 23 23 23 22 22 22 21 21 21 21 20 20 20 20 20 20 19 19 19 19 19 19 19 19 19 19 20
24 20 22 25 26 26 28 28 28 27 26 26 26 26 26 25 24 23 23 22 22 22 22 22 22 22 22 22 21 21 21 20 20 20 20 20 20 19 19 19 19 19 18 18 18 19 19 19 19
24 23 24 26 28 28 27 27 27 26 24 24 24 25 25 25 24 24 23 23 22 22 22 22 22 22 21 21 21 20 20 20 20 20 20 20 19 19 19 19 18 18 18 18 18 18 18 18 18
25 25 27 27 29 28 28 27 26 25 24 24 24 24 24 24 24 23 22 22 22 21 21 21 21 21 21 21 20 20 20 20 20 19 19 19 19 19 19 18 18 18 18 18 18 18 18 18 18
25 25 27 28 29 28 27 26 25 24 23 23 23 24 23 23 23 22 22 22 22 21 21 20 20 20 20 20 20 19 19 19 19 19 19 19 18 18 18 18 18 18 18 17 17 17 17 17 17
26 26 27 28 28 27 26 25 24 22 22 22 22 21 21 22 22 22 21 21 21 21 21 20 20 20 20 19 19 19 19 19 18 18 18 18 18 18 18 18 18 17 17 17 17 17 17 17 17
27 25 24 25 26 26 25 23 22 21 21 20 20 20 20 20 21 21 20 21 21 20 20 20 20 19 19 19 19 19 19 18 18 18 18 18 18 18 18 18 18 17 17 17 17 17 17 17 17
24 23 23 24 24 25 23 21 21 21 20 19 19 19 19 19 19 20 20 20 20 20 20 20 19 19 19 19 19 18 18 18 18 18 18 18 18 17 17 17 17 17 17 17 17 17 17 17 16
22 22 22 24 24 24 22 20 20 20 20 19 19 19 19 19 19 19 19 19 19 19 19 19 19 19 19 19 18 18 18 18 18 17 17 17 17 17 17 17 17 17 17 16 16 16 16 16 16
21 22 22 23 23 23 20 19 19 19 19 19 19 19 19 19 19 19 19 19 19 19 19 19 19 19 19 18 18 18 18 17 17 17 17 17 17 17 16 16 16 16 16 16 16 16 16 16 16
23 23 22 22 23 21 19 19 18 18 18 18 18 18 19 19 19 19 19 19 19 19 19 19 19 19 18 18 18 18 17 17 17 16 16 16 16 16 16 16 16 16 16 16 16 16 16 15 15
24 22 21 21 22 21 19 18 18 18 17 17 18 18 19 19 19 19 19 19 19 19 19 19 19 18 18 18 17 17 17 17 16 16 16 16 15 15 15 15 15 15 15 15 15 15 15 15 15
23 22 21 21 21 21 20 18 17 18 18 18 19 19 19 19 20 20 19 19 19 19 19 19 19 18 18 17 17 17 16 16 16 16 16 15 15 15 15 15 15 15 15 15 15 15 14 14 14
22 23 23 22 20 18 19 18 17 16 17 18 18 19 19 20 20 20 20 20 20 19 19 19 18 18 17 17 17 16 16 16 15 15 15 15 15 15 15 15 14 14 14 14 14 14 14 14 14
22 23 22 21 18 17 18 17 17 16 17 18 18 19 20 20 20 20 20 20 20 19 19 18 18 17 17 16 16 16 15 15 15 14 14 14 14 14 14 14 14 14 14 14 14 14 14 14 14
23 21 19 17 17 17 17 17 17 16 17 17 18 20 21 21 21 21 20 20 19 19 18 18 17 17 16 16 15 15 15 14 14 14 13 13 13 13 13 13 13 13 13 13 13 13 13 14 14
22 19 18 18 17 17 17 17 17 17 18 18 19 20 21 21 21 21 20 20 19 18 18 17 17 16 16 15 15 14 14 13 13 13 13 13 12 12 13 13 13 13 13 13 13 13 13 13 13
23 21 19 19 18 17 17 17 17 19 19 19 20 20 21 21 21 20 20 19 19 18 17 17 16 16 15 15 14 14 13 13 13 12 12 12 12 12 12 12 12 12 12 12 12 12 12 12 13
24 21 20 18 17 17 17 17 19 19 19 20 20 20 20 20 20 20 19 19 18 18 17 16 16 15 14 14 13 13 13 12 12 12 12 11 11 11 11 11 11 11 11 11 12 12 12 12 12
24 22 19 18 18 18 18 18 17 19 19 19 19 20 20 20 20 19 19 18 18 17 16 16 15 14 14 13 13 12 12 12 11 11 11 11 11 11 10 11 11 11 11 11 11 11 11 11 11
24 23 20 18 18 17 18 18 20 19 19 18 19 20 20 20 19 19 18 18 17 16 16 15 14 14 13 12 12 12 11 11 11 11 10 10 10 10 10 10 10 10 10 10 10 11 11 11 11
23 23 20 20 19 17 17 18 21 19 19 20 20 20 20 19 19 18 18 17 16 16 15 14 13 13 12 12 11 11 11 11 10 10 10 10 10 10 10 10 10 10 10 10 10 10 10 10 10
Wind_Speed
13 10 4 2 1 1 4 6 2 3 5 5 9 10 8 6 4 5 4 17 21 20 18 22 23 23 22 22 21 20 19 18 18 18 17 17 17 17 17 16 15 15 14 14 13 13 13 13 13
11 7 2 0 1 1 5 5 2 2 4 7 9 9 8 7 9 10 8 16 21 19 17 20 23 23 23 22 21 20 19 19 18 17 17 17 16 16 15 15 14 14 13 13 13 12 12 12 12
8 5 2 1 3 4 5 5 4 3 2 2 5 5 5 6 10 8 11 19 18 15 16 20 23 23 22 21 21 20 19 19 18 17 17 16 16 15 15 14 13 13 12 12 12 12 11 11 11
4 2 1 2 8 8 8 10 6 2 2 4 7 6 5 4 7 12 20 20 18 14 15 20 22 22 21 21 20 19 19 18 18 17 16 16 16 15 15 14 13 13 12 12 12 12 11 11 10
3 3 1 4 8 8 11 12 6 3 2 5 9 7 5 5 19 22 20 19 19 14 13 19 22 21 21 20 20 19 18 18 17 17 16 16 15 15 14 14 14 13 13 12 12 12 12 11 11
2 2 1 5 8 9 9 5 6 6 7 8 9 8 5 12 20 20 19 16 17 17 12 17 21 21 20 19 19 18 18 17 16 16 16 16 15 15 14 14 14 13 13 13 13 13 13 12 12
3 2 5 6 8 9 7 3 5 6 6 5 8 7 6 11 17 18 17 16 15 15 12 11 16 18 19 19 18 18 17 16 16 16 15 15 15 14 14 14 14 14 14 14 14 14 14 14 14
5 1 5 5 7 8 8 4 2 5 4 5 5 8 8 11 15 17 16 14 13 11 11 9 11 13 14 15 17 17 16 16 15 15 15 14 14 14 14 14 14 15 15 15 16 16 16 16 15
1 0 6 6 6 8 11 6 4 5 7 4 5 6 9 13 17 18 15 13 11 11 9 9 8 9 11 12 15 15 15 15 15 14 15 14 12 13 13 14 16 17 17 17 17 17 17 17 17
4 4 9 8 8 9 11 6 2 6 9 7 9 9 12 14 15 16 16 14 12 12 11 9 9 8 10 11 11 11 11 12 12 11 12 12 11 12 12 14 17 18 19 19 19 19 19 17 14
6 9 12 14 16 10 6 5 4 7 6 5 10 11 12 12 10 10 12 12 12 12 11 11 10 9 8 5 8 7 8 9 10 11 12 11 10 10 10 9 11 15 17 15 16 17 15 14 12
7 12 13 14 15 8 5 0 5 7 7 9 12 12 13 12 9 8 8 8 8 9 8 9 9 8 7 6 5 6 5 6 6 10 11 9 5 4 5 4 6 8 9 9 10 9 12 13 14
8 11 13 13 12 6 2 4 8 9 12 14 15 17 15 13 11 8 7 7 8 8 7 6 7 7 6 5 4 4 4 4 6 7 8 9 4 4 3 3 3 5 7 6 6 6 7 8 10
7 9 10 9 8 1 6 6 8 7 12 16 17 15 14 13 11 10 9 8 7 7 7 6 7 5 5 4 3 3 2 3 3 3 4 6 5 3 2 2 2 3 5 6 5 6 7 7 7
6 9 11 8 5 1 8 9 9 8 12 16 15 14 13 12 11 10 7 7 6 6 5 5 6 5 5 3 3 2 2 3 2 2 4 5 5 3 2 1 2 2 4 5 4 5 4 6 8
6 6 6 8 7 4 9 7 7 7 13 12 12 12 12 9 9 8 7 6 5 5 5 5 5 5 4 3 2 1 2 2 2 2 3 4 5 4 2 1 2 3 4 3 3 4 4 5 6
6 4 6 8 7 4 9 6 5 7 11 10 9 10 10 9 8 7 7 6 5 5 6 6 5 5 4 3 3 2 2 2 1 2 2 2 3 3 1 2 2 3 2 3 4 3 3 4 5
4 4 5 6 6 10 11 8 7 8 10 8 6 7 8 8 7 7 7 7 6 6 6 5 5 5 4 4 3 3 3 2 1 0 2 3 3 3 2 2 2 2 2 3 3 4 4 4 5
2 1 2 5 6 9 11 10 8 7 7 6 4 5 5 6 5 6 7 7 6 5 5 4 4 3 3 3 2 2 1 2 2 1 1 2 2 2 2 2 2 2 2 3 4 3 4 4 3
2 2 2 3 6 6 9 9 6 5 3 2 2 3 2 3 4 5 6 5 5 5 5 5 5 4 4 3 2 2 1 1 1 1 1 1 2 3 3 3 3 3 2 3 3 2 2 3 2
2 3 4 4 3 6 5 4 3 2 2 1 1 2 2 4 6 6 6 6 6 7 7 6 6 5 4 4 2 2 2 2 3 3 2 3 4 5 4 4 4 3 3 3 3 2 2 3 2
2 4 5 5 5 2 2 1 3 3 2 2 3 3 6 6 6 6 7 7 7 8 7 6 6 5 4 4 3 2 2 1 2 2 3 4 4 5 5 5 5 4 4 4 4 3 2 2 3
4 3 4 4 5 4 4 2 4 2 2 4 4 6 8 7 7 8 7 7 6 5 5 4 4 4 3 3 4 3 1 2 2 3 4 5 5 5 5 4 5 5 5 5 5 3 3 3 3
8 6 7 6 5 4 2 1 4 3 5 4 5 7 7 6 6 6 4 3 2 2 3 3 4 2 2 3 3 3 3 3 3 4 5 5 4 4 5 4 4 5 5 6 6 5 5 4 4
5 5 4 5 5 1 2 1 6 7 7 7 7 7 5 4 4 3 2 3 3 3 4 3 4 2 1 2 2 3 4 4 5 5 5 4 4 4 5 4 4 4 5 6 6 5 6 5 5
3 7 7 4 3 1 2 2 7 8 7 6 6 5 3 2 2 3 4 4 4 4 3 3 3 1 1 1 3 3 3 3 4 5 4 5 4 5 6 5 4 5 5 6 6 5 6 5 6
2 1 6 7 4 3 2 4 7 5 4 4 4 3 3 3 5 6 5 5 5 4 3 2 2 0 2 3 4 4 4 4 5 5 5 5 5 5 6 5 5 6 6 6 6 6 7 6 6
4 4 6 6 5 3 2 3 5 6 5 3 3 4 4 4 5 5 4 4 3 3 2 2 2 1 2 3 4 3 4 5 5 5 6 6 6 6 6 6 6 6 6 7 6 6 7 7 7
4 4 5 4 6 6 3 5 5 8 7 7 6 6 7 6 6 4 3 3 3 2 1 0 1 2 3 4 4 4 5 5 5 5 6 7 6 7 7 7 7 7 7 7 6 7 8 9 8
3 3 6 5 2 4 5 4 2 9 8 9 8 7 7 7 5 4 3 2 1 0 1 2 3 3 4 4 4 5 5 6 6 6 7 7 7 7 7 7 7 8 8 8 8 8 8 9 9
Wind_Direction
157 148 152 146 75 300 262 263 249 328 3 48 73 84 83 66 114 141 127 143 139 145 150 149 146 143 141 140 140 139 137 136 135 134 133 134 134 135 137 138 140 141 142 143 143 140 138 136 135
151 154 158 167 192 303 268 256 285 269 149 115 84 80 74 73 90 111 118 140 141 143 145 148 147 145 145 144 144 144 143 143 142 142 143 144 144 145 146 146 147 148 149 150 150 148 146 146 146
166 177 157 196 230 216 257 259 238 248 189 130 94 64 70 101 113 122 138 139 137 139 142 148 147 146 147 148 148 149 149 149 150 151 152 153 154 155 155 156 157 157 158 159 159 157 156 157 158
145 145 302 247 253 247 252 269 250 262 44 58 99 64 47 75 113 131 137 139 136 137 140 148 147 147 149 150 151 152 153 155 157 158 159 161 162 163 164 166 168 169 170 169 168 167 167 169 171
106 135 240 269 258 260 263 260 228 180 144 99 99 91 48 44 114 129 138 142 139 137 142 148 148 149 150 152 154 156 158 161 163 164 165 167 170 172 173 176 178 179 179 178 178 178 178 181 185
110 141 215 262 272 281 279 261 144 155 133 120 109 109 93 121 126 138 141 143 142 142 143 148 151 151 153 155 158 160 163 165 168 170 172 175 177 180 182 185 188 188 188 188 187 189 189 191 195
165 197 240 264 294 304 318 351 134 149 142 138 126 107 122 139 142 143 140 139 139 142 142 145 152 154 156 159 162 165 168 172 174 176 179 182 185 188 191 195 197 198 198 197 197 198 200 201 203
182 127 288 295 302 296 311 342 61 107 107 114 110 129 152 155 143 137 131 130 132 138 145 146 150 153 157 162 167 170 173 177 180 183 186 189 193 196 200 203 206 207 208 208 207 207 208 209 210
193 60 269 270 282 291 317 354 42 68 89 68 67 114 138 131 128 128 125 125 135 143 151 153 154 155 157 163 173 176 180 184 187 191 194 196 200 203 208 212 215 217 217 217 217 216 216 216 218
157 208 246 243 261 288 312 331 40 83 74 68 72 80 106 114 123 133 138 142 147 156 165 168 167 165 165 174 174 179 185 189 193 197 201 201 203 209 216 222 224 226 226 224 223 222 221 221 221
199 225 253 266 269 270 293 338 27 104 82 105 115 113 105 103 105 126 141 148 157 162 169 170 171 171 175 174 165 181 190 193 200 206 210 208 208 216 225 225 235 235 233 229 228 226 224 222 218
239 256 258 266 270 264 259 334 58 82 115 109 99 95 90 95 94 107 127 136 137 146 163 162 164 164 171 160 162 174 185 192 201 210 213 208 209 217 223 222 228 230 229 224 222 222 222 223 222
253 262 270 269 274 263 177 101 96 86 99 98 91 81 82 90 87 85 88 102 119 132 141 149 152 155 155 153 166 170 183 187 196 206 212 205 202 214 214 230 234 231 228 224 224 226 227 226 224
265 284 298 296 292 253 106 83 83 86 100 92 83 80 83 87 92 98 95 93 102 110 119 130 141 144 142 148 150 145 145 152 157 170 185 190 189 184 191 232 248 246 238 232 229 229 233 234 230
303 319 322 331 330 22 91 56 67 90 92 89 89 89 86 84 86 90 97 98 94 95 103 119 126 117 116 122 127 115 120 118 116 123 133 154 155 152 150 253 271 260 257 251 246 243 239 240 234
349 356 332 324 360 6 86 87 68 80 93 87 91 93 92 88 87 91 93 92 89 92 84 81 99 96 94 92 89 89 97 101 110 120 130 138 139 142 157 235 260 260 260 258 257 248 244 249 242
12 350 317 323 11 50 80 99 72 59 84 87 91 95 98 96 94 99 101 102 101 100 93 81 81 83 79 69 65 66 62 75 115 139 152 154 144 150 158 244 249 252 253 261 269 254 236 245 249
302 327 330 335 6 68 80 87 61 44 60 68 72 92 98 100 106 114 112 107 104 99 96 94 85 80 73 57 48 41 36 28 23 187 198 185 175 173 174 224 250 245 251 269 273 265 251 242 241
243 334 360 12 27 70 74 69 48 41 48 59 59 73 94 114 130 126 125 123 116 112 111 107 100 93 87 70 63 50 8 342 353 325 249 212 202 201 196 223 235 230 233 250 263 267 266 257 233
81 66 60 47 48 81 82 70 53 32 25 37 74 80 104 134 145 146 144 143 142 148 150 149 151 145 137 140 151 160 185 272 296 337 339 297 256 243 226 218 225 229 231 255 262 254 262 263 223
60 145 168 153 90 64 98 66 30 330 333 279 130 193 196 196 183 173 169 174 172 176 181 177 180 170 163 153 122 69 42 15 8 349 326 301 282 267 254 234 228 225 212 228 240 235 226 253 263
189 195 175 152 118 48 65 166 282 274 292 276 270 227 219 212 197 190 189 192 195 200 192 185 181 174 169 145 123 126 135 225 257 266 276 293 288 279 270 249 237 227 218 219 229 215 208 217 246
175 141 121 117 105 70 24 84 287 308 278 246 245 237 223 209 200 198 198 198 197 192 179 172 162 162 162 145 143 140 174 224 256 278 294 297 297 290 285 263 244 232 225 221 219 216 216 207 216
126 88 61 51 68 49 327 79 287 255 237 239 243 239 228 214 205 202 197 172 158 120 120 128 135 150 163 159 163 176 212 243 272 287 293 295 294 292 296 288 257 244 233 226 221 218 217 219 216
116 108 53 20 25 283 295 2 263 257 245 228 229 234 229 210 186 172 147 111 96 97 110 121 133 164 201 194 217 229 236 244 254 267 269 277 283 284 285 293 269 258 245 238 228 223 225 223 222
176 139 147 165 181 252 335 275 265 262 252 229 219 220 223 199 141 116 115 115 110 110 105 114 129 167 237 243 260 265 261 254 257 257 250 254 254 260 269 272 265 260 258 250 233 229 231 228 230
70 55 147 122 101 97 283 290 297 272 255 233 218 193 169 144 123 115 111 106 101 97 94 112 121 130 280 275 274 274 275 266 263 266 262 262 261 265 268 266 264 261 258 254 240 233 234 228 230
111 136 82 98 126 119 200 233 234 234 224 203 173 158 156 139 119 109 105 104 102 108 107 100 121 217 273 286 284 286 282 277 273 274 275 273 271 270 276 272 266 263 257 250 245 242 237 228 230
8 38 89 105 136 137 173 259 228 191 175 164 166 162 156 143 131 127 128 121 116 111 116 126 294 295 297 293 288 294 291 288 288 283 279 277 274 273 270 268 267 264 260 253 245 242 239 232 233
173 171 129 112 55 119 129 276 279 153 160 155 158 160 153 144 145 147 141 121 100 7 293 285 286 288 285 284 285 286 284 286 286 282 279 277 275 273 268 267 267 266 265 254 245 248 249 235 234
Height
1524 1525 1527 1529 1530 1532 1527 1509 1496 1490 1486 1484 1481 1482 1486 1490 1495 1505 1502 1503 1507 1510 1514 1518 1521 1524 1526 1528 1530 1532 1534 1536 1537 1539 1540 1541 1543 1544 1545 1547 1548 1549 1550 1551 1551 1552 1553 1553 1554
1524 1526 1529 1529 1531 1535 1523 1502 1496 1489 1487 1484 1483 1485 1487 1492 1494 1497 1500 1505 1508 1511 1514 1518 1521 1524 1526 1528 1530 1532 1534 1536 1537 1539 1540 1541 1543 1544 1545 1546 1548 1549 1550 1551 1551 1552 1553 1554 1555
1525 1527 1529 1529 1529 1528 1515 1497 1490 1487 1487 1484 1485 1487 1490 1495 1497 1498 1501 1505 1509 1512 1515 1518 1521 1524 1526 1528 1530 1532 1534 1535 1537 1538 1540 1541 1542 1543 1545 1546 1547 1548 1549 1550 1551 1552 1553 1554 1555
1525 1528 1528 1530 1526 1512 1502 1494 1489 1486 1487 1485 1485 1491 1494 1498 1498 1500 1503 1507 1509 1513 1516 1519 1522 1525 1527 1529 1531 1532 1534 1535 1537 1538 1539 1541 1542 1543 1544 1546 1547 1548 1549 1550 1551 1552 1553 1554 1555
1525 1526 1530 1530 1519 1503 1494 1487 1486 1485 1486 1486 1485 1493 1497 1498 1499 1502 1506 1509 1511 1513 1517 1520 1522 1525 1527 1529 1531 1532 1534 1535 1536 1538 1539 1540 1541 1543 1544 1545 1546 1547 1548 1550 1551 1552 1553 1554 1555
1524 1524 1533 1531 1514 1499 1490 1485 1484 1484 1486 1487 1487 1492 1499 1500 1501 1505 1508 1511 1513 1514 1517 1520 1523 1526 1528 1530 1531 1533 1534 1535 1536 1537 1538 1540 1541 1542 1543 1544 1545 1546 1547 1549 1550 1551 1552 1553 1554
1523 1524 1527 1521 1512 1501 1490 1486 1483 1485 1485 1486 1487 1493 1500 1502 1504 1506 1509 1512 1514 1516 1518 1521 1523 1525 1527 1529 1531 1532 1534 1535 1536 1537 1538 1539 1540 1541 1542 1543 1544 1545 1546 1547 1548 1549 1551 1552 1553
1519 1521 1523 1519 1513 1503 1491 1487 1486 1486 1486 1487 1488 1491 1498 1502 1505 1507 1511 1513 1515 1518 1519 1521 1523 1525 1527 1529 1531 1532 1533 1535 1536 1537 1537 1538 1539 1540 1541 1542 1543 1544 1545 1546 1547 1548 1549 1550 1551
1517 1524 1527 1518 1510 1500 1491 1490 1488 1487 1487 1488 1488 1491 1496 1502 1505 1507 1510 1513 1516 1518 1520 1522 1523 1525 1527 1529 1530 1532 1533 1534 1535 1536 1537 1537 1538 1539 1540 1541 1542 1542 1543 1544 1544 1545 1546 1547 1548
1514 1524 1517 1506 1501 1498 1493 1490 1489 1490 1490 1491 1492 1495 1498 1502 1505 1507 1508 1512 1515 1518 1521 1523 1524 1525 1527 1528 1530 1531 1532 1533 1534 1535 1535 1536 1537 1537 1538 1539 1540 1540 1540 1541 1541 1542 1543 1544 1545
1509 1511 1504 1499 1496 1496 1494 1492 1490 1491 1495 1495 1495 1497 1500 1503 1507 1509 1510 1512 1514 1518 1520 1522 1524 1525 1526 1528 1529 1530 1531 1532 1533 1533 1534 1535 1535 1536 1536 1537 1537 1537 1537 1537 1538 1538 1539 1540 1541
1506 1501 1498 1495 1492 1492 1492 1492 1493 1493 1497 1497 1497 1498 1501 1504 1507 1510 1512 1514 1516 1518 1519 1521 1523 1524 1525 1526 1528 1529 1529 1530 1531 1532 1533 1533 1533 1534 1534 1534 1534 1534 1534 1534 1534 1534 1535 1535 1536
1501 1497 1493 1491 1489 1488 1489 1492 1494 1498 1499 1499 1499 1501 1503 1506 1508 1512 1514 1515 1515 1517 1518 1520 1522 1523 1524 1525 1526 1527 1528 1529 1529 1529 1530 1531 1531 1532 1532 1532 1531 1531 1530 1530 1530 1530 1530 1530 1530
1497 1494 1491 1488 1486 1486 1488 1494 1495 1503 1502 1501 1502 1503 1505 1507 1508 1510 1512 1514 1516 1516 1518 1519 1520 1522 1523 1524 1525 1525 1526 1526 1527 1527 1528 1528 1528 1528 1528 1528 1528 1527 1526 1526 1525 1525 1525 1525 1525
1495 1494 1491 1487 1485 1487 1488 1500 1503 1505 1504 1504 1505 1507 1508 1509 1511 1512 1514 1515 1517 1517 1519 1520 1520 1521 1523 1523 1524 1524 1524 1524 1524 1524 1524 1524 1524 1525 1524 1524 1524 1523 1522 1521 1520 1520 1520 1519 1519
1496 1500 1504 1492 1488 1488 1494 1514 1510 1508 1506 1508 1509 1510 1511 1512 1513 1515 1516 1517 1518 1518 1519 1519 1520 1521 1521 1522 1522 1522 1522 1522 1522 1521 1521 1522 1522 1521 1521 1521 1520 1519 1518 1517 1516 1515 1514 1513 1512
1508 1514 1510 1499 1491 1491 1500 1515 1513 1512 1509 1511 1512 1512 1513 1514 1516 1517 1518 1519 1519 1519 1519 1519 1519 1520 1520 1520 1520 1520 1520 1520 1519 1519 1519 1519 1518 1517 1517 1516 1515 1514 1513 1512 1511 1510 1508 1507 1506
1517 1514 1510 1506 1497 1497 1506 1515 1516 1515 1514 1514 1515 1514 1514 1515 1518 1519 1519 1520 1520 1520 1520 1520 1520 1520 1519 1519 1519 1519 1519 1518 1518 1517 1516 1515 1515 1514 1514 1513 1512 1510 1509 1508 1506 1505 1504 1502 1501
1505 1507 1509 1505 1500 1505 1513 1517 1518 1518 1517 1517 1517 1518 1516 1516 1518 1519 1520 1520 1520 1521 1521 1520 1520 1520 1519 1519 1519 1518 1517 1517 1516 1515 1514 1513 1512 1512 1510 1509 1508 1507 1505 1504 1502 1501 1499 1498 1497
1502 1509 1511 1508 1503 1508 1516 1520 1520 1521 1520 1519 1519 1519 1519 1519 1519 1519 1519 1520 1520 1521 1520 1520 1520 1519 1519 1518 1517 1516 1516 1515 1514 1513 1512 1510 1509 1508 1507 1506 1504 1503 1501 1500 1498 1497 1495 1494 1493
1503 1508 1509 1510 1508 1510 1516 1527 1524 1520 1520 1519 1517 1518 1519 1520 1519 1518 1519 1519 1519 1519 1519 1518 1518 1517 1516 1516 1515 1514 1513 1512 1511 1510 1508 1507 1506 1504 1503 1502 1500 1499 1497 1496 1495 1494 1492 1491 1490
1506 1498 1500 1505 1516 1526 1523 1538 1530 1524 1521 1518 1518 1518 1518 1519 1518 1517 1517 1517 1517 1517 1516 1516 1515 1515 1514 1513 1512 1511 1510 1508 1507 1506 1504 1502 1501 1500 1498 1497 1496 1494 1493 1492 1491 1491 1489 1488 1487
1500 1497 1502 1508 1519 1530 1530 1536 1534 1526 1524 1518 1517 1517 1516 1517 1516 1516 1515 1515 1515 1515 1514 1514 1513 1512 1511 1510 1509 1508 1506 1505 1503 1501 1499 1498 1496 1494 1493 1492 1491 1490 1489 1488 1488 1487 1486 1485 1484
1495 1504 1511 1518 1526 1541 1536 1538 1536 1527 1522 1517 1515 1515 1515 1515 1515 1515 1515 1514 1514 1514 1513 1512 1511 1510 1509 1508 1506 1504 1503 1501 1498 1496 1494 1492 1491 1489 1488 1487 1486 1485 1484 1484 1483 1483 1482 1482 1481
1498 1515 1532 1538 1546 1546 1535 1536 1532 1517 1514 1514 1514 1514 1514 1514 1513 1513 1513 1513 1513 1512 1511 1511 1509 1508 1507 1505 1503 1501 1499 1496 1494 1492 1489 1487 1486 1484 1483 1482 1481 1480 1479 1479 1479 1478 1478 1478 1477
1496 1506 1529 1541 1548 1546 1538 1539 1526 1512 1511 1511 1511 1512 1512 1513 1513 1513 1513 1512 1511 1511 1510 1509 1507 1505 1504 1502 1499 1497 1495 1492 1490 1487 1485 1483 1481 1479 1478 1477 1476 1475 1474 1474 1473 1473 1473 1473 1473
1495 1502 1505 1525 1538 1547 1542 1533 1520 1510 1510 1510 1511 1511 1511 1512 1512 1512 1511 1511 1510 1509 1508 1506 1504 1502 1500 1498 1495 1493 1490 1488 1485 1483 1480 1478 1476 1474 1472 1471 1470 1469 1468 1468 1468 1467 1467 1467 1467
1488 1494 1509 1525 1541 1547 1541 1536 1531 1515 1512 1510 1510 1510 1511 1511 1511 1511 1510 1509 1508 1507 1505 1504 1501 1499 1497 1494 1491 1488 1485 1483 1480 1477 1475 1472 1470 1468 1466 1465 1463 1462 1462 1461 1461 1461 1461 1461 1461
1493 1495 1505 1518 1525 1541 1547 1539 1511 1511 1509 1510 1509 1510 1510 1510 1510 1509 1509 1508 1506 1505 1503 1501 1498 1495 1493 1490 1487 1484 1481 1478 1475 1472 1469 1467 1464 1462 1460 1458 1457 1456 1455 1454 1454 1454 1454 1454 1455
1490 1493 1502 1519 1523 1529 1539 1537 1505 1506 1507 1507 1508 1509 1509 1509 1508 1508 1507 1505 1504 1502 1500 1497 1494 1491 1489 1485 1482 1479 1476 1473 1469 1466 1464 1461 1458 1456 1454 1452 1450 1449 1448 1447 1446 1446 1446 1447 1447